K8JWL-13 Weather Reports


Display with metric or nautical units.
time (UTC)temp
F
wind
direction
speed
MPH
gust
MPH
rain 1hr
in
rain 24hr
in
rain mn
in
humidity
%
barometer
mb
20260831024520 74 122 0.0 0.0 185.39 0.00 0.00 83 1020.0
20260831023519 74 122 0.0 0.0 185.39 0.00 0.00 83 1019.8
20260831023019 74 122 0.0 0.0 185.39 0.00 0.00 83 1019.7
20260831021519 74 122 0.0 0.0 185.39 0.00 0.00 82 1019.9
20260831021019 75 122 0.0 0.0 185.39 0.00 0.00 83 1019.9
20260831020519 75 122 0.0 0.0 185.39 0.00 0.00 83 1020.0
20260831020019 75 122 0.0 0.0 185.39 0.00 0.00 83 1020.0
20260831015519 75 122 0.0 0.0 185.39 0.00 0.00 82 1020.1
20260831014519 75 122 0.0 0.0 185.39 0.00 0.00 82 1020.1
20260831014019 75 122 0.0 0.0 185.39 0.00 0.00 82 1020.1
20260831013519 75 122 0.0 0.0 185.39 0.00 0.00 82 1020.0
20260831013019 76 122 0.0 0.0 185.39 0.00 0.00 82 1019.9
20260831012519 76 122 0.0 0.0 185.39 0.00 0.00 82 1020.0
20260831012019 76 122 0.0 0.0 185.39 0.00 0.00 82 1020.0
20260831011519 76 122 0.0 0.0 185.39 0.00 0.00 82 1020.0
20260831010019 77 122 0.0 0.0 185.39 0.00 0.00 81 1020.0
20260831005019 77 122 0.0 0.0 185.39 0.00 0.00 81 1020.0
20260831001519 78 122 0.0 0.0 185.39 0.00 0.00 79 1019.6
20260831001019 79 122 0.0 0.0 185.39 0.00 0.00 79 1019.6
20260831000519 79 122 0.0 0.0 185.39 0.00 0.00 79 1019.7
20260831000018 79 122 0.0 0.0 185.39 0.00 0.00 78 1019.6
20260830230018 81 122 0.0 0.0 185.39 0.00 0.00 71 1018.8
20260830225018 82 122 0.0 0.0 185.39 0.00 0.00 69 1018.6
20260830224518 82 122 0.0 0.0 185.39 0.00 0.00 68 1018.5
20260830223019 83 122 0.0 0.0 185.39 0.00 0.00 66 1018.5
20260830222018 83 122 0.0 0.0 185.39 0.00 0.00 64 1018.5
20260830221020 82 122 0.0 0.0 185.39 0.00 0.00 66 1018.5
20260830220518 82 122 0.0 0.0 185.39 0.00 0.00 67 1018.5
20260830220018 81 122 0.0 0.0 185.39 0.00 0.00 68 1018.5
20260830215020 81 122 0.0 0.0 185.39 0.00 0.00 68 1018.5
20260830213018 81 122 0.0 0.0 185.39 0.00 0.00 69 1018.4
20260830212519 81 122 0.0 0.0 185.39 0.00 0.00 69 1018.3
20260830211518 81 122 0.0 0.0 185.39 0.00 0.00 69 1018.3
20260830211019 81 122 0.0 0.0 185.39 0.00 0.00 68 1018.3
20260830210518 81 122 0.0 0.0 185.39 0.00 0.00 66 1018.1
20260830210018 82 122 0.0 0.0 185.39 0.00 0.00 65 1018.1
20260830205519 82 122 0.0 0.0 185.39 0.00 0.00 64 1018.0
20260830205018 82 122 0.0 0.0 185.39 0.00 0.00 65 1017.9
20260830203518 81 122 0.0 0.0 185.39 0.00 0.00 63 1018.0
20260830202519 81 122 0.0 0.0 185.39 0.00 0.00 63 1018.1
20260830202018 80 122 0.0 0.0 185.39 0.00 0.00 63 1018.1
20260830201518 80 122 0.0 0.0 185.39 0.00 0.00 63 1018.2
20260830201019 80 122 0.0 0.0 185.39 0.00 0.00 61 1018.5
20260830195522 80 122 0.0 0.0 185.39 0.00 0.00 62 1018.8
20260830195018 80 122 0.0 0.0 185.39 0.00 0.00 62 1018.8
20260830194518 80 122 0.0 0.0 185.39 0.00 0.00 64 1018.5
20260830194019 80 122 0.0 0.0 185.39 0.00 0.00 66 1019.2
20260830193523 80 122 0.0 0.0 185.39 0.00 0.00 67 1019.8
20260830193018 81 122 0.0 0.0 185.39 0.00 0.00 66 1020.3
20260830192518 81 122 0.0 0.0 185.39 0.00 0.00 64 1020.5
20260830191018 81 122 0.0 0.0 185.39 0.00 0.00 59 1021.0
20260830190518 81 122 0.0 0.0 185.39 0.00 0.00 58 1021.1
20260830185518 81 122 0.0 0.0 185.39 0.00 0.00 56 1021.3
20260830185021 81 122 0.0 0.0 185.39 0.00 0.00 59 1021.4
20260830184518 81 122 0.0 0.0 185.39 0.00 0.00 59 1021.4
20260830183018 81 122 0.0 0.0 185.39 0.00 0.00 61 1021.5
20260830182018 81 122 0.0 0.0 185.39 0.00 0.00 64 1021.5
20260830180018 81 122 0.0 0.0 185.39 0.00 0.00 64 1021.7
20260830175518 81 122 0.0 0.0 185.39 0.00 0.00 66 1021.9
20260830174520 81 122 0.0 0.0 185.39 0.00 0.00 66 1021.7
20260830174133 81 122 0.0 0.0 185.39 0.00 0.00 65 1021.7
20260830174019 81 122 0.0 0.0 185.39 0.00 0.00 65 1021.7
20260830173518 81 122 0.0 0.0 185.39 0.00 0.00 66 1021.7
20260830172518 81 122 0.0 0.0 185.39 0.00 0.00 65 1021.7
20260830172018 80 122 0.0 0.0 185.39 0.00 0.00 66 1021.6
20260830171518 80 122 0.0 0.0 185.39 0.00 0.00 67 1021.6
20260830171019 80 122 0.0 0.0 185.39 0.00 0.00 68 1021.6
20260830170518 80 122 0.0 0.0 185.39 0.00 0.00 69 1021.7
20260830165518 79 122 0.0 0.0 185.39 0.00 0.00 71 1022.0
20260830165018 79 122 0.0 0.0 185.39 0.00 0.00 72 1022.0
20260830164519 79 122 0.0 0.0 185.39 0.00 0.00 72 1022.1
20260830163018 78 122 0.0 0.0 185.39 0.00 0.00 74 1022.3
20260830162518 78 122 0.0 0.0 185.39 0.00 0.00 75 1022.3
20260830162018 77 122 0.0 0.0 185.39 0.00 0.00 75 1022.4
20260830161519 77 122 0.0 0.0 185.39 0.00 0.00 76 1022.3
20260830161019 77 122 0.0 0.0 185.39 0.00 0.00 76 1022.4
20260830160519 77 122 0.0 0.0 185.39 0.00 0.00 76 1022.3
20260830160020 77 122 0.0 0.0 185.39 0.00 0.00 76 1022.3
20260830155518 77 122 0.0 0.0 185.39 0.00 0.00 76 1022.3
20260830155020 77 122 0.0 0.0 185.39 0.00 0.00 75 1022.3
20260830154518 77 122 0.0 0.0 185.39 0.00 0.00 75 1022.1
20260830153518 77 122 0.0 0.0 185.39 0.00 0.00 74 1021.7
20260830152518 77 122 0.0 0.0 185.39 0.00 0.00 72 1021.5
20260830152018 77 122 0.0 0.0 185.39 0.00 0.00 71 1021.5
20260830150518 78 122 0.0 0.0 185.39 0.00 0.00 71 1021.3
20260830150018 77 122 0.0 0.0 185.39 0.00 0.00 71 1021.1
20260830145518 77 122 0.0 0.0 185.39 0.00 0.00 72 1020.9
20260830145018 77 122 0.0 0.0 185.39 0.00 0.00 73 1020.7
20260830143518 75 122 0.0 0.0 185.39 0.00 0.00 74 1020.6
20260830141050 74 122 0.0 0.0 185.39 0.00 0.00 77 1020.4
20260830141018 74 122 0.0 0.0 185.39 0.00 0.00 77 1020.4
20260830140023 74 122 0.0 0.0 185.39 0.00 0.00 77 1020.4
20260830134520 73 122 0.0 0.0 185.39 0.00 0.00 79 1020.5
20260830133518 72 122 0.0 0.0 185.39 0.00 0.00 81 1020.3
20260830133018 72 122 0.0 0.0 185.39 0.00 0.00 82 1020.3
20260830131518 71 122 0.0 0.0 185.39 0.00 0.00 84 1020.4
20260830131018 70 122 0.0 0.0 185.39 0.00 0.00 84 1020.4
20260830130518 70 122 0.0 0.0 185.39 0.00 0.00 85 1020.5
20260830125518 70 122 0.0 0.0 185.39 0.00 0.00 86 1020.6
20260830125018 69 122 0.0 0.0 185.39 0.00 0.00 86 1020.7
20260830124517 69 122 0.0 0.0 185.39 0.00 0.00 87 1020.7
20260830124018 69 122 0.0 0.0 185.39 0.00 0.00 88 1020.7
20260830122518 68 122 0.0 0.0 185.39 0.00 0.00 88 1020.7
20260830122018 68 122 0.0 0.0 185.39 0.00 0.00 88 1020.7
20260830121018 68 122 0.0 0.0 185.39 0.00 0.00 88 1020.8
20260830120517 68 122 0.0 0.0 185.39 0.00 0.00 88 1020.8
20260830120017 68 122 0.0 0.0 185.39 0.00 0.00 88 1020.8
20260830115017 68 122 0.0 0.0 185.39 0.00 0.00 88 1020.8
20260830114517 68 122 0.0 0.0 185.39 0.00 0.00 88 1020.9
20260830114018 68 122 0.0 0.0 185.39 0.00 0.00 88 1020.9
20260830113517 68 122 0.0 0.0 185.39 0.00 0.00 88 1020.8
20260830113018 68 122 0.0 0.0 185.39 0.00 0.00 88 1020.8
20260830112518 68 122 0.0 0.0 185.39 0.00 0.00 88 1020.8
20260830112017 67 184 1.0 0.0 185.39 0.00 0.00 88 1020.8
20260830111517 67 8 0.0 0.0 185.39 0.00 0.00 88 1020.8
20260830111018 67 8 0.0 0.0 185.39 0.00 0.00 88 1020.8
20260830110518 67 8 0.0 0.0 185.39 0.00 0.00 88 1020.8
20260830105017 68 8 0.0 0.0 185.39 0.00 0.00 88 1020.7
20260830104517 67 8 0.0 0.0 185.39 0.00 0.00 88 1020.6
20260830104019 67 8 0.0 0.0 185.39 0.00 0.00 88 1020.6
20260830103517 67 8 0.0 0.0 185.39 0.00 0.00 88 1020.6
20260830102518 67 8 0.0 0.0 185.39 0.00 0.00 88 1020.3
20260830102017 67 8 0.0 0.0 185.39 0.00 0.00 88 1020.3
20260830101517 67 8 0.0 0.0 185.39 0.00 0.00 88 1020.3
20260830100517 67 8 0.0 0.0 185.39 0.00 0.00 88 1020.3
20260830100017 67 8 0.0 0.0 185.39 0.00 0.00 88 1020.4
20260830095517 67 8 0.0 0.0 185.39 0.00 0.00 88 1020.3
20260830095017 67 8 0.0 0.0 185.39 0.00 0.00 88 1020.3
20260830094517 67 8 0.0 0.0 185.39 0.00 0.00 88 1020.4
20260830094018 67 8 0.0 0.0 185.39 0.00 0.00 88 1020.3
20260830093517 67 8 0.0 0.0 185.39 0.00 0.00 87 1020.3
20260830093019 67 8 0.0 0.0 185.39 0.00 0.00 87 1020.3
20260830092517 67 8 0.0 0.0 185.39 0.00 0.00 88 1020.3
20260830092017 67 8 0.0 0.0 185.39 0.00 0.00 88 1020.2
20260830091518 67 8 0.0 0.0 185.39 0.00 0.00 87 1020.2
20260830091017 67 8 0.0 0.0 185.39 0.00 0.00 87 1020.3
20260830090517 67 8 0.0 0.0 185.39 0.00 0.00 88 1020.3
20260830090017 67 8 0.0 0.0 185.39 0.00 0.00 88 1020.3
20260830085519 67 8 0.0 0.0 185.39 0.00 0.00 87 1020.3
20260830085017 67 8 0.0 0.0 185.39 0.00 0.00 87 1020.3
20260830084517 66 8 0.0 0.0 185.39 0.00 0.00 87 1020.4
20260830084017 66 8 0.0 0.0 185.39 0.00 0.00 87 1020.4
20260830083517 66 8 0.0 0.0 185.39 0.00 0.00 87 1020.4
20260830083017 66 8 0.0 0.0 185.39 0.00 0.00 87 1020.5
20260830082017 66 8 0.0 0.0 185.39 0.00 0.00 87 1020.5
20260830081517 66 8 0.0 0.0 185.39 0.00 0.00 87 1020.6
20260830081018 66 8 0.0 0.0 185.39 0.00 0.00 87 1020.6
20260830080017 66 8 0.0 0.0 185.39 0.00 0.00 87 1020.5
20260830075017 66 8 0.0 0.0 185.39 0.00 0.00 87 1020.6
20260830074517 66 8 0.0 0.0 185.39 0.00 0.00 87 1020.6
20260830074017 66 8 0.0 0.0 185.39 0.00 0.00 87 1020.6
20260830073517 66 8 0.0 0.0 185.39 0.00 0.00 87 1020.6
20260830073017 66 8 0.0 0.0 185.39 0.00 0.00 86 1020.6
20260830072517 66 8 0.0 0.0 185.39 0.00 0.00 86 1020.6
20260830071517 66 8 0.0 0.0 185.39 0.00 0.00 86 1020.7
20260830070518 66 8 0.0 0.0 185.39 0.00 0.00 86 1020.7
20260830070018 65 8 0.0 0.0 185.39 0.00 0.00 86 1020.7
20260830065518 66 8 0.0 0.0 185.39 0.00 0.00 86 1020.7
20260830065017 65 8 0.0 0.0 185.39 0.00 0.00 86 1020.8
20260830064517 66 8 0.0 0.0 185.39 0.00 0.00 86 1020.8
20260830063518 66 8 0.0 0.0 185.39 0.00 0.00 86 1020.9
20260830063017 66 8 0.0 0.0 185.39 0.00 0.00 86 1020.8
20260830062518 66 8 0.0 0.0 185.39 0.00 0.00 85 1020.9
20260830062017 66 8 0.0 0.0 185.39 0.00 0.00 85 1020.9
20260830061517 66 8 0.0 0.0 185.39 0.00 0.00 85 1021.0
20260830061018 66 8 0.0 0.0 185.39 0.00 0.00 85 1021.0
20260830060517 66 8 0.0 0.0 185.39 0.00 0.00 85 1021.0
20260830060017 66 8 0.0 0.0 185.39 0.00 0.00 85 1020.8
20260830055517 66 8 0.0 0.0 185.39 0.00 0.00 85 1020.9
20260830055017 66 8 0.0 0.0 185.39 0.00 0.00 85 1021.0
20260830054517 66 8 0.0 0.0 185.39 0.00 0.00 85 1021.0
20260830054017 66 8 0.0 0.0 185.39 0.00 0.00 85 1021.0
20260830053517 66 8 0.0 0.0 185.39 0.00 0.00 85 1021.1
20260830053017 66 8 0.0 0.0 185.39 0.00 0.00 85 1021.2
20260830052517 66 8 0.0 0.0 185.39 0.00 0.00 85 1021.2
20260830052017 66 8 0.0 0.0 185.39 0.00 0.00 84 1021.2
20260830051517 67 8 0.0 0.0 185.39 0.00 0.00 84 1021.1
20260830051017 67 8 0.0 0.0 185.39 0.00 0.00 84 1021.1
20260830050517 67 8 0.0 0.0 185.39 0.00 0.00 84 1021.0
20260830050017 67 8 0.0 0.0 185.39 0.00 0.00 84 1021.0
20260830045517 67 8 0.0 0.0 185.39 0.00 0.00 84 1021.0
20260830045017 67 8 0.0 0.0 185.39 0.00 0.00 84 1021.0
20260830044517 67 8 0.0 0.0 185.39 0.00 0.00 84 1020.9
20260830044017 67 8 0.0 0.0 185.39 0.00 0.00 84 1020.9
20260830043517 67 8 0.0 0.0 185.39 0.00 0.00 84 1020.8
20260830043017 67 8 0.0 0.0 185.39 0.00 0.00 84 1020.7
20260830042017 67 8 0.0 0.0 185.39 0.00 0.00 83 1020.6
20260830041517 67 8 0.0 0.0 185.39 0.00 0.00 83 1020.7
20260830041017 68 8 0.0 0.0 185.39 0.00 0.00 83 1020.7
20260830040517 68 8 0.0 0.0 185.39 0.00 0.00 83 1020.6
20260830035517 68 8 0.0 0.0 185.39 0.00 0.00 83 1020.6
20260830034517 68 8 0.0 0.0 185.39 0.00 0.00 82 1020.6
20260830033517 68 8 0.0 0.0 185.39 0.00 0.00 82 1020.6
20260830033017 68 8 0.0 0.0 185.39 0.00 0.00 82 1020.7
20260830032517 69 8 0.0 0.0 185.39 0.00 0.00 81 1020.6
20260830032017 69 8 0.0 0.0 185.39 0.00 0.00 81 1020.6
20260830031517 69 8 0.0 0.0 185.39 0.00 0.00 81 1020.6
20260830031017 69 8 0.0 0.0 185.39 0.00 0.00 81 1020.7
20260830030517 69 8 0.0 0.0 185.39 0.00 0.00 80 1020.7
20260830030017 69 8 0.0 0.0 185.39 0.00 0.00 80 1020.7
20260830025517 69 8 0.0 0.0 185.39 0.00 0.00 80 1020.7
20260830025017 69 8 0.0 0.0 185.39 0.00 0.00 80 1020.7